[ hide orbit diagram ]
For accurate long-term ephemerides, please instead use our Horizons system.This orbit viewer was implemented using two-body methods, and hence should not be used for determining accurate long-term trajectories (over several years or decades) or planetary encounter circumstances.
Orbital Elements at Epoch 2459000.5 (2020-May-31.0) TDB
Reference: JPL 15 (heliocentric ecliptic J2000)
Element | Value | Uncertainty (1-sigma) | Units |
e | .1114429975581944 | 4.114e-08 | |
a | 2.409783900644375 | 1.2571e-08 | au |
q | 2.141230359289088 | 1.0058e-07 | au |
i | 7.917329309412564 | 5.2492e-06 | deg |
node | 141.9145844140964 | 3.1903e-05 | deg |
peri | 337.1164256489562 | 3.9511e-05 | deg |
M | 152.3151824665478 | 2.2626e-05 | deg |
tp | 2458422.395607648776 (2018-Oct-30.89560765) | 8.5284e-05 | TDB |
period | 1366.361369078545 3.74 | 1.0692e-05 2.927e-08 | d yr |
n | .2634734910888026 | 2.0617e-09 | deg/d |
Q | 2.678337441999662 | 1.3972e-08 | au |
|
| | Orbit Determination Parameters
Additional Information
|
[ show covariance matrix ]
Physical Parameter Table
Parameter |
Symbol |
Value |
Units |
Sigma |
Reference |
Notes |
absolute magnitude |
H |
16.5 |
|
n/a |
MPO268159 |
|
|
183863 (2004 CE14) Discovered 2004-Feb-11 by LONEOS at Anderson Mesa |
Reference: 20080420/Numbers.arc | Last Updated: 2008-04-23 |
|
[ show close-approach data ]
|